TimeEDT,TemperatureF,Dew PointF,Humidity,Sea Level PressureIn,VisibilityMPH,Wind Direction,Wind SpeedMPH,Gust SpeedMPH,PrecipitationIn,Events,Conditions,WindDirDegrees,DateUTC
12:53 AM,80.1,73.0,79,30.05,10.0,East,9.2,-,N/A,,Scattered Clouds,100,2013-08-27 04:53:00
1:53 AM,80.1,71.1,74,30.04,10.0,East,8.1,-,N/A,,Clear,90,2013-08-27 05:53:00
2:53 AM,80.1,72.0,76,30.02,10.0,ENE,5.8,-,N/A,,Clear,70,2013-08-27 06:53:00
3:53 AM,80.1,73.0,79,30.02,10.0,East,5.8,-,N/A,,Clear,80,2013-08-27 07:53:00
4:53 AM,79.0,73.9,84,30.01,10.0,North,3.5,-,N/A,,Mostly Cloudy,10,2013-08-27 08:53:00
5:01 AM,80.6,73.4,79,30.02,10.0,NE,9.2,-,N/A,,Mostly Cloudy,40,2013-08-27 09:01:00
5:20 AM,80.6,73.4,79,30.02,10.0,NE,10.4,-,N/A,,Scattered Clouds,40,2013-08-27 09:20:00
5:53 AM,80.1,72.0,76,30.02,10.0,NE,11.5,-,N/A,,Mostly Cloudy,50,2013-08-27 09:53:00
6:53 AM,80.1,71.1,74,30.03,10.0,NE,9.2,-,N/A,,Partly Cloudy,40,2013-08-27 10:53:00
7:53 AM,82.0,71.1,69,30.04,10.0,ENE,10.4,-,N/A,,Clear,60,2013-08-27 11:53:00
8:53 AM,84.0,71.1,65,30.04,10.0,NE,12.7,-,N/A,,Partly Cloudy,50,2013-08-27 12:53:00
9:53 AM,84.9,71.1,63,30.06,10.0,ENE,13.8,-,N/A,,Scattered Clouds,70,2013-08-27 13:53:00
10:53 AM,86.0,69.1,57,30.07,10.0,ENE,15.0,-,N/A,,Scattered Clouds,60,2013-08-27 14:53:00
11:53 AM,87.1,69.1,55,30.06,10.0,ENE,13.8,-,N/A,,Partly Cloudy,60,2013-08-27 15:53:00
12:53 PM,87.1,70.0,57,30.06,10.0,East,13.8,20.7,N/A,,Scattered Clouds,90,2013-08-27 16:53:00
1:53 PM,87.1,69.1,55,30.04,10.0,East,13.8,-,N/A,,Scattered Clouds,90,2013-08-27 17:53:00
2:53 PM,88.0,70.0,55,30.02,10.0,East,10.4,17.3,N/A,,Partly Cloudy,80,2013-08-27 18:53:00
3:53 PM,86.0,68.0,55,30.02,10.0,ENE,8.1,-,N/A,,Partly Cloudy,60,2013-08-27 19:53:00
4:53 PM,84.0,68.0,58,30.01,10.0,East,8.1,-,N/A,,Partly Cloudy,90,2013-08-27 20:53:00
5:53 PM,84.0,66.9,56,30.01,10.0,NE,11.5,-,N/A,,Clear,50,2013-08-27 21:53:00
6:53 PM,82.0,66.9,60,30.01,10.0,NNE,10.4,-,N/A,,Clear,30,2013-08-27 22:53:00
7:53 PM,81.0,66.0,60,30.01,10.0,NE,8.1,-,N/A,,Clear,50,2013-08-27 23:53:00
8:53 PM,81.0,66.9,62,30.02,10.0,ENE,8.1,-,N/A,,Clear,60,2013-08-28 00:53:00
9:53 PM,80.1,68.0,67,30.04,10.0,NE,8.1,-,N/A,,Clear,50,2013-08-28 01:53:00
10:53 PM,80.1,69.1,69,30.04,10.0,NE,8.1,-,N/A,,Clear,50,2013-08-28 02:53:00
11:53 PM,80.1,69.1,69,30.04,10.0,NE,6.9,-,N/A,,Clear,50,2013-08-28 03:53:00